CAPE
12 5 0 0 4 2 0 0 0 0 0 4 0 6 3 1 0 0 1 0 1 2 2 2 7 9 5 5 4 0 1 0 0 0 0 1 2 1
6 11 9 4 12 1 2 0 0 0 0 0 3 7 4 1 0 0 0 1 3 3 4 7 8 4 3 7 5 2 0 0 0 0 0 0 0 0
2 2 12 7 0 8 0 0 0 0 0 2 1 3 4 1 0 2 1 1 1 4 9 10 5 5 6 6 6 1 0 0 0 0 0 0 0 0
0 0 4 27 15 0 1 0 0 0 0 0 4 3 3 1 2 0 0 0 0 6 12 5 4 2 2 4 3 0 1 0 0 0 0 0 0 0
0 0 2 11 1 0 2 0 0 0 0 0 4 2 2 0 1 1 1 1 0 2 3 1 0 1 1 3 2 2 0 0 0 0 0 0 0 0
0 1 0 0 0 0 0 0 0 0 0 2 3 3 4 1 2 2 2 1 0 0 0 0 0 0 2 2 1 0 0 0 0 0 0 0 0 0
0 0 0 0 0 0 0 0 1 0 1 2 2 6 3 1 0 2 1 0 0 0 0 0 0 0 1 2 0 0 0 0 0 0 0 0 0 0
1 0 0 0 1 1 3 5 0 0 2 4 6 2 5 2 1 1 0 0 0 0 0 0 0 0 0 0 0 0 0 0 0 0 0 0 0 0
1 1 1 2 3 3 3 2 3 1 1 0 0 2 4 1 0 0 1 1 0 0 0 0 0 0 0 0 0 0 0 0 0 0 0 0 0 0
1 3 3 2 3 2 1 1 1 1 0 0 0 0 0 1 0 0 0 0 0 0 0 0 0 0 0 0 0 0 0 0 0 0 0 0 0 0
2 2 1 2 3 1 0 2 1 3 5 3 3 3 4 3 0 0 0 0 0 0 0 0 0 0 0 0 0 0 0 0 0 0 0 0 0 0
1 2 2 3 6 4 1 1 2 2 2 0 0 1 1 2 1 0 0 0 0 0 0 0 0 0 0 0 0 0 0 0 0 0 0 0 0 0
1 3 2 5 5 4 3 3 0 1 3 0 0 0 0 0 0 0 0 0 0 0 0 0 0 0 0 0 0 0 0 0 0 0 0 0 0 0
2 3 3 5 5 5 4 5 2 0 0 0 0 0 0 0 0 0 0 0 0 0 0 0 0 0 0 0 0 0 0 0 0 0 0 0 0 0
0 0 0 0 0 0 0 0 0 0 0 0 0 0 0 0 0 0 0 0 0 0 0 0 0 0 0 0 0 0 0 0 0 0 0 0 0 0
0 0 0 0 0 0 0 0 0 0 0 0 0 0 0 0 0 0 0 0 0 0 0 0 0 0 0 0 0 0 0 0 0 0 0 0 0 0
0 0 0 0 0 0 0 0 0 0 0 0 0 0 0 0 0 0 0 0 0 0 0 0 0 0 0 0 0 0 0 0 0 0 0 0 0 0
0 0 0 0 0 0 0 0 0 0 0 0 0 0 0 0 0 0 0 0 0 0 0 0 0 0 0 0 0 0 0 0 0 0 0 0 0 0
0 0 0 0 0 0 0 0 0 0 0 0 0 0 0 0 0 0 0 0 0 0 0 0 0 0 0 0 0 0 0 0 0 0 0 0 0 0
0 0 0 0 0 0 0 0 0 0 0 0 0 0 0 0 0 0 0 0 0 0 0 0 0 0 0 0 0 0 0 0 0 0 0 0 0 0
0 0 0 0 0 0 0 0 0 0 0 0 0 0 0 0 0 0 0 0 0 0 0 0 0 0 0 0 0 0 0 0 0 0 0 0 0 0
0 0 0 0 0 0 0 0 0 0 0 0 0 0 0 0 0 0 0 0 0 0 0 0 0 0 0 0 0 0 0 0 0 0 0 0 0 0
0 0 0 0 0 0 0 0 0 0 0 0 0 0 0 0 0 0 0 0 0 0 0 0 0 0 0 0 0 0 0 0 0 0 0 0 0 0
CIN
-0 -0 -0 -0 -1 -2 -0 -0 -0 -0 -0 -0 -0 -0 -0 -0 -0 -0 -0 -0 -0 -0 -0 -0 -0 -0 -0 -0 -0 -1 -0 -0 -0 -0 -0 -0 -0 -0
-1 -0 -0 -0 -1 -1 -3 -0 -0 -0 -0 -0 -0 -0 -0 -0 -0 -0 -0 -0 -0 -0 -0 -0 -0 -0 -0 -0 -0 -0 -0 -0 -0 -0 -0 -0 -0 -0
-0 -0 -0 -0 -0 -17 -0 -0 -0 -0 -0 -0 -0 -0 -0 -0 -0 -0 -0 -0 -0 -0 -0 -0 -0 -0 -0 -0 -0 -1 -0 -0 -0 -0 -0 -0 -0 -0
-0 -0 -0 -2 -2 -0 -0 -0 -0 -0 -0 -0 -0 -0 -0 -0 -0 -0 -0 -0 -0 -0 -0 -0 -0 -0 -0 -0 -0 -0 -0 -0 -0 -0 -0 -0 -0 -0
-0 -0 -0 -7 -34 -0 -0 -0 -0 -0 -0 -0 -0 -0 -0 -0 -0 -0 -0 -0 -0 -0 -0 -0 -0 -0 -0 -0 -0 -0 -0 -0 -0 -0 -0 -0 -0 -0
-0 -0 -0 -0 -0 -0 -0 -0 -0 -0 -0 -0 -0 -0 -0 -0 -0 -0 -0 -0 -0 -0 -0 -0 -0 -0 -0 -0 -0 -0 -0 -0 -0 -0 -0 -0 -0 -0
-0 -0 -0 -0 -0 -0 -0 -0 -0 -0 -0 -0 -0 -0 -0 -0 -0 -0 -0 -0 -0 -0 -0 -0 -0 -0 -0 -0 -0 -0 -0 -0 -0 -0 -0 -0 -0 -0
-0 -0 -0 -0 -0 -0 -0 -0 -0 -0 -0 -0 -0 -0 -0 -0 -0 -0 -0 -0 -0 -0 -0 -0 -0 -0 -0 -0 -0 -0 -0 -0 -0 -0 -0 -0 -0 -0
-0 -0 -0 -0 -0 -0 -0 -0 -0 -0 -0 -0 -0 -0 -0 -0 -0 -0 -0 -0 -0 -0 -0 -0 -0 -0 -0 -0 -0 -0 -0 -0 -0 -0 -0 -0 -0 -0
-0 -0 -0 -0 -0 -0 -0 -0 -0 -0 -0 -0 -0 -0 -0 -0 -0 -0 -0 -0 -0 -0 -0 -0 -0 -0 -0 -0 -0 -0 -0 -0 -0 -0 -0 -0 -0 -0
-0 -0 -0 -0 -0 -0 -0 -0 -0 -0 -0 -0 -0 -0 -0 -0 -0 -0 -0 -0 -0 -0 -0 -0 -0 -0 -0 -0 -0 -0 -0 -0 -0 -0 -0 -0 -0 -0
-0 -0 -0 -0 -0 -0 -0 -0 -0 -0 -0 -0 -0 -0 -0 -0 -0 -0 -0 -0 -0 -0 -0 -0 -0 -0 -0 -0 -0 -0 -0 -0 -0 -0 -0 -0 -0 -0
-0 -0 -0 -0 -0 -0 -0 -0 -0 -0 -0 -0 -0 -0 -0 -0 -0 -0 -0 -0 -0 -0 -0 -0 -0 -0 -0 -0 -0 -0 -0 -0 -0 -0 -0 -0 -0 -0
-0 -0 -0 -0 -0 -0 -0 -0 -0 -0 -0 -0 -0 -0 -0 -0 -0 -0 -0 -0 -0 -0 -0 -0 -0 -0 -0 -0 -0 -0 -0 -0 -0 -0 -0 -0 -0 -0
-0 -0 -0 -0 -0 -0 -0 -0 -0 -0 -0 -0 -0 -0 -0 -0 -0 -0 -0 -0 -0 -0 -0 -0 -0 -0 -0 -0 -0 -0 -0 -0 -0 -0 -0 -0 -0 -0
-0 -0 -0 -0 -0 -0 -0 -0 -0 -0 -0 -0 -0 -0 -0 -0 -0 -0 -0 -0 -0 -0 -0 -0 -0 -0 -0 -0 -0 -0 -0 -0 -0 -0 -0 -0 -0 -0
-0 -0 -0 -0 -0 -0 -0 -0 -0 -0 -0 -0 -0 -0 -0 -0 -0 -0 -0 -0 -0 -0 -0 -0 -0 -0 -0 -0 -0 -0 -0 -0 -0 -0 -0 -0 -0 -0
-0 -0 -0 -0 -0 -0 -0 -0 -0 -0 -0 -0 -0 -0 -0 -0 -0 -0 -0 -0 -0 -0 -0 -0 -0 -0 -0 -0 -0 -0 -0 -0 -0 -0 -0 -0 -0 -0
-0 -0 -0 -0 -0 -0 -0 -0 -0 -0 -0 -0 -0 -0 -0 -0 -0 -0 -0 -0 -0 -0 -0 -0 -0 -0 -0 -0 -0 -0 -0 -0 -0 -0 -0 -0 -0 -0
-0 -0 -0 -0 -0 -0 -0 -0 -0 -0 -0 -0 -0 -0 -0 -0 -0 -0 -0 -0 -0 -0 -0 -0 -0 -0 -0 -0 -0 -0 -0 -0 -0 -0 -0 -0 -0 -0
-0 -0 -0 -0 -0 -0 -0 -0 -0 -0 -0 -0 -0 -0 -0 -0 -0 -0 -0 -0 -0 -0 -0 -0 -0 -0 -0 -0 -0 -0 -0 -0 -0 -0 -0 -0 -0 -0
-0 -0 -0 -0 -0 -0 -0 -0 -0 -0 -0 -0 -0 -0 -0 -0 -0 -0 -0 -0 -0 -0 -0 -0 -0 -0 -0 -0 -0 -0 -0 -0 -0 -0 -0 -0 -0 -0
-0 -0 -0 -0 -0 -0 -0 -0 -0 -0 -0 -0 -0 -0 -0 -0 -0 -0 -0 -0 -0 -0 -0 -0 -0 -0 -0 -0 -0 -0 -0 -0 -0 -0 -0 -0 -0 -0
Wind_Speed
52 54 56 58 55 44 46 43 46 49 47 40 36 32 28 29 31 32 33 33 32 28 28 25 21 16 14 13 15 15 16 19 20 21 21 22 23 24
53 52 56 55 53 48 45 44 44 46 52 44 41 35 27 26 28 31 29 30 31 28 26 25 22 19 15 16 16 16 17 18 19 20 21 22 23 24
52 53 53 51 49 49 42 38 44 43 46 44 40 37 29 25 25 24 22 24 26 25 24 22 20 18 17 16 16 17 18 19 20 20 20 21 21 23
49 48 48 48 47 44 41 41 40 36 38 38 34 32 32 22 23 19 20 19 20 19 21 20 18 17 15 16 16 17 19 21 21 21 20 20 22 25
45 47 45 43 44 44 45 42 34 34 32 36 31 29 28 22 18 18 17 17 17 15 15 15 16 15 17 17 17 19 21 21 20 18 18 20 23 24
44 43 41 37 37 38 39 39 34 33 26 25 26 25 23 19 18 20 18 20 20 18 17 16 15 16 16 16 18 20 20 18 17 17 19 19 20 24
42 42 39 31 30 30 31 33 27 29 27 25 26 21 19 20 22 21 22 20 21 22 19 18 17 18 18 18 18 16 16 16 17 16 17 19 21 24
35 32 28 25 24 23 25 26 26 23 20 22 25 22 20 17 17 19 20 22 25 21 20 21 20 20 18 16 13 14 14 13 14 17 18 19 23 28
20 16 16 17 17 15 17 17 20 20 16 19 20 19 18 14 12 12 15 16 20 15 16 19 18 18 14 13 12 10 10 14 17 18 19 22 27 30
9 9 10 10 10 10 10 13 14 15 15 12 10 6 8 6 9 9 7 9 11 11 13 17 13 14 10 11 11 12 14 17 19 19 21 25 29 32
3 3 1 1 1 7 8 8 5 7 3 2 2 2 1 3 4 4 5 6 10 10 8 11 9 11 12 14 13 15 16 19 19 20 24 28 31 36
3 4 2 2 2 2 2 5 5 2 6 5 5 7 5 5 1 1 5 3 3 6 5 9 8 10 14 14 15 17 19 21 21 23 26 31 34 37
11 9 7 10 6 4 3 3 5 8 10 10 8 6 6 5 7 7 6 5 4 11 4 6 9 10 15 17 17 17 19 21 22 26 28 32 34 35
13 16 9 10 10 11 13 15 14 11 10 10 9 10 9 8 7 6 6 8 12 11 4 8 13 13 16 19 21 21 21 23 25 28 32 31 35 37
16 17 16 16 17 15 15 15 13 14 13 11 10 9 8 8 8 8 9 10 12 12 11 13 14 14 18 20 23 23 26 26 27 29 30 35 38 39
30 21 22 23 21 20 17 14 15 14 13 11 10 9 8 8 8 9 9 11 13 14 15 16 16 17 20 21 23 26 26 30 28 31 35 37 38 38
27 21 18 17 17 16 15 13 13 12 11 10 9 8 8 8 10 11 11 13 15 15 16 17 20 21 21 23 27 27 29 31 32 35 38 41 40 39
19 17 15 15 15 14 14 14 13 12 11 10 9 9 8 8 10 11 13 15 17 17 18 19 20 24 27 26 23 29 30 33 34 36 38 42 43 39
20 18 17 16 15 14 13 12 11 10 9 9 9 9 9 10 10 12 15 16 18 20 20 21 23 26 33 36 31 24 32 34 37 38 37 38 43 40
17 16 15 14 12 11 11 11 10 10 11 12 12 11 11 12 14 15 17 19 21 22 24 24 25 26 31 35 35 33 28 34 36 40 40 38 37 37
17 17 15 14 13 13 13 13 13 13 13 12 12 12 12 14 17 19 20 21 23 25 28 29 27 25 28 30 35 36 33 30 31 36 38 42 43 40
20 19 18 17 16 16 15 15 14 14 14 14 14 15 16 18 21 22 23 25 26 27 29 30 28 26 28 32 36 37 37 34 32 34 33 33 38 41
21 21 21 20 19 19 18 17 17 18 18 19 20 21 21 23 24 25 26 27 29 30 30 30 28 28 30 32 34 36 37 38 37 37 35 31 31 32
Wind_Direction
247 245 246 245 247 255 249 248 247 253 255 257 258 255 248 247 248 252 242 233 223 230 226 224 228 240 254 255 274 286 293 300 306 309 310 312 313 315
246 247 246 248 247 251 251 250 250 255 260 259 262 266 256 257 252 249 248 241 234 225 224 224 232 244 249 262 272 284 293 300 307 310 310 311 312 314
245 245 247 246 244 244 249 249 249 258 260 266 267 267 265 261 262 253 235 237 233 226 227 227 238 243 253 264 271 285 294 301 306 308 309 310 312 315
245 245 246 244 243 241 242 246 253 257 266 264 266 269 265 266 258 251 255 237 228 233 228 234 236 246 255 267 279 287 295 300 304 306 307 310 313 315
245 242 247 244 242 243 243 246 255 260 267 262 270 269 262 259 258 251 246 241 246 237 238 240 246 254 264 273 284 289 295 298 301 304 308 311 314 318
242 243 246 245 243 245 244 246 253 259 265 266 267 266 262 265 257 238 238 243 247 254 255 254 259 269 272 278 286 291 295 296 300 304 309 315 317 318
238 239 246 246 244 244 242 242 247 257 260 265 263 266 265 253 248 248 245 244 256 260 258 265 270 278 281 285 289 291 294 296 301 309 313 314 316 319
232 240 248 244 241 243 244 241 244 254 263 265 262 260 261 253 254 241 238 246 256 263 263 268 278 281 286 291 291 294 298 302 307 310 312 315 318 318
238 244 246 243 239 239 243 245 252 258 270 262 258 258 260 249 240 232 236 243 261 259 266 274 282 282 289 292 295 299 300 306 310 311 312 315 317 317
254 249 236 237 235 230 228 242 260 277 277 275 266 265 266 234 234 231 225 250 276 273 276 280 285 288 301 303 302 301 304 309 310 310 312 315 316 317
265 259 180 216 214 214 212 228 255 260 271 16 15 36 76 133 185 188 222 226 275 285 287 298 298 300 304 305 308 308 306 310 310 312 314 316 317 318
31 36 70 92 209 196 125 171 176 155 80 64 47 56 56 78 90 265 134 164 309 315 292 309 315 317 315 315 312 313 315 316 315 315 318 318 319 319
50 42 37 56 62 65 92 100 97 90 79 75 69 59 45 33 49 69 71 87 347 322 332 331 327 321 323 325 322 318 318 317 317 318 319 320 320 321
47 49 48 58 64 64 65 75 79 80 74 69 65 52 52 48 36 27 10 342 334 339 28 334 331 324 321 320 319 321 319 318 319 319 321 323 322 322
56 60 61 60 60 56 56 59 56 59 62 60 53 48 45 51 42 12 357 355 357 356 348 336 333 329 325 321 322 321 321 321 319 320 322 322 322 323
67 52 54 58 57 58 51 43 48 50 53 52 50 45 31 6 2 0 351 345 340 337 340 337 334 329 324 321 321 319 319 319 322 321 321 322 323 323
66 48 40 39 42 38 34 26 24 29 32 30 36 24 11 2 350 345 342 338 333 330 328 329 331 330 326 324 321 319 319 319 320 322 323 322 324 324
30 23 16 16 22 24 24 24 23 24 27 31 22 11 2 355 346 341 337 332 328 326 326 327 326 326 325 322 315 318 320 321 322 323 323 322 323 326
43 41 38 35 35 36 34 32 31 28 27 16 5 358 349 341 334 330 329 328 325 324 323 324 323 322 319 318 324 316 319 322 323 323 324 323 322 325
22 22 22 21 21 21 19 12 10 4 354 349 344 338 333 329 325 322 321 320 320 321 321 321 319 318 318 319 321 324 323 322 323 323 324 325 324 325
360 358 358 357 353 350 348 345 343 339 337 334 329 325 321 320 319 318 318 316 317 317 316 316 317 319 321 323 321 322 326 326 326 326 326 325 326 328
341 340 340 340 338 337 336 335 332 329 325 321 318 316 315 314 314 314 314 314 313 314 316 320 322 320 319 318 318 321 323 327 329 327 325 323 324 327
332 330 329 327 326 325 323 322 319 317 315 313 313 312 312 310 311 312 312 312 313 313 315 316 318 319 318 319 320 322 323 325 328 329 330 331 331 330